ATLAS 5 CENTAUR DEB, 44986

Orbit data source: Space-Track

ATLAS 5 CENTAUR DEB, 44986 is space debris in HEO originally from a launch on Wed, 17 Oct 2018 UTC launched from the Air Force Eastern Test Range (AFETR). Debris objects in space refer to the collection of defunct objects orbiting the Earth. Examples of debris include non-operational satellites, rocket bodies, and fragments generated from explosions, collisions, or faulty payload assembly.

Loading next visibility...
Identifier
44986, 2018-079BS
Orbit
HEO
Country
Flag of USUS
Related business
Flag of USUnited Launch Alliance/Lockheed Martin (US)
Manufacturer
ULA Decatur
Mission
Spacecraft
Bus & Motor
Unknown
Mass
Unknown
Launch date (UTC)
2018-10-17 (7 years ago)
Launch vehicle
Unknown
Launch site
Air Force Eastern Test Range (AFETR)
Object type
Payload
Rocket body
Debris
Shape & HBR
Unknown shape, 1.1 m
Radar Cross Section
RCS unknown

Expand to show TLE details & history
Last TLE update: 1 week ago

TLE from 1 week ago
0 ATLAS 5 CENTAUR DEB
1 44986U 18079BS  25280.45748593 -.00000097  00000-0  00000-0 0  9995
2 44986  12.9604  49.3076 4707535 291.2340  25.8130  1.84064085 39575
Epoch: 2025-10-07T10:58Z
TLE epoch observation values (Epoch: 2025-10-07T10:58:46.784Z)
Latitude
Longitude
-131.73383°
Altitude
12,293.851 km
Speed
5.341 km/s
True Right ascension
03h 17m 13s
True Declination
0° 00' 00"
Sunlit
Object was in daylight at epoch
Visualization orbit readout
Latitude
Unknown
Longitude
Unknown
Altitude
Unknown
Speed
Unknown
Apparent Right ascension
Unknown
Apparent Declination
Unknown
Sunlit
N/A
Visualization observer readout
Local Sidereal Time
12:41:01
Azimuth
Unknown
Elevation
Unknown
Doppler factor
Unknown
Orbital elements
Apogee altitude
34,989.608 km
Perigee altitude
8,507.929 km
Semi-major axis
28,126.906 km
Eccentricity
0.47075
Inclination
12.9604°
RAAN
49.3076°
Arg. of periapsis
291.234°
True anomaly
69.02247°
Mean anomaly
25.813°
Eccentric anomaly
44.82782°
Mean motion
0.46011 °/min
Orbital period
782.42 mins
BSTAR
0
Loading maneuver chart data...
Computing Atmospheric mass density...

Documentation

Showing up to 5 results
|